Tracking 32214 objects as of 19-Nov-2025
HD Live streaming from Space Station
objects crossing your sky now

STARLINK-31001

Track STARLINK-31001 now!
10-day predictions
STARLINK-31001 is classified as:


NORAD ID: 58527
Int'l Code: 2023-191V
Perigee: 565.6 km
Apogee: 566.8 km
Inclination: 43.0 °
Period: 95.8 minutes
Semi major axis: 6937 km
RCS: Unknown
Launch date: December 7, 2023
Source: United States (US)
Launch site: AIR FORCE EASTERN TEST RANGE (AFETR)
Your satellite tracking list
Your tracking list is empty




NASA's NSSDC Master Catalog

Two Line Element Set (TLE):
1 58527U 23191V   25321.79534647  .00000729  00000-0  69069-4 0  9993
2 58527  43.0075 353.5388 0000848 273.6828  86.3917 15.02532289108616
Source of the keplerian elements: AFSPC